Gastonia, NC

5:37 PM EST on November 18, 2017 (GMT -0500)
Gastonia Municipal

Weather History for KAKH - February, 2013

Change the Weather History Date:

Sunday, February 24, 2013

  Actual Average (KCLT) Record (KCLT)
Temperature  
Mean Temperature 52 °F -  
Max Temperature 64 °F 57 °F 80 °F (1982)
Min Temperature 41 °F 35 °F 16 °F (1967)
Degree Days  
Heating Degree Days 12    
Growing Degree Days 2 (Base 50)    
Moisture  
Dew Point 39 °F    
Average Humidity 78    
Maximum Humidity 100    
Minimum Humidity 28    
Precipitation  
Precipitation 0.01 in - - ()
Sea Level Pressure  
Sea Level Pressure 29.92 in    
Wind  
Wind Speed 3 mph (West)    
Max Wind Speed 9 mph    
Max Gust Speed -    
Visibility 5 miles    
Events Fog , Rain    
Averages and records for this station are not official NWS values.
T = Trace of Precipitation, MM = Missing Value Source: NWS Daily Summary

Daily Weather History Graph

Daily Weather History Graph

Search for Another Location

Airport or City:

Trip Planner

Search our weather history database for the weather conditions in past years. The results will help you decide how hot, cold, wet, or windy it might be!

Date:

Astronomy

Feb. 24, 2013 Rise Set
Actual Time 7:00 AM EST 6:15 PM EST
Civil Twilight 6:34 AM EST 6:41 PM EST
Nautical Twilight 6:05 AM EST 7:10 PM EST
Astronomical Twilight 5:35 AM EST 7:40 PM EST
Moon 5:25 PM EST (2/24) 5:55 AM EST (2/24)
Length of Visible Light 12h 06m
Length of Day
11h 15m
Waxing Gibbous, 99% of the Moon is Illuminated
Feb 24
Waxing Gibbous
Feb 25
Full
Mar 4
Last Quarter
Mar 11
New
Mar 19
First Quarter

Hourly Weather History & Observations

Time (EST) Temp. Windchill Dew Point Humidity Pressure Visibility Wind Dir Wind Speed Gust Speed Precip Events Conditions
12:25 AM 42.8 °F 40.1 °F 42.8 °F 100% 29.87 in 3.0 mi Variable 4.6 mph - N/A   Overcast
12:32 AM 42.8 °F 41.1 °F 42.8 °F 100% 29.87 in 2.5 mi Variable 3.5 mph - N/A   Overcast
12:47 AM 42.8 °F 41.1 °F 42.8 °F 100% 29.87 in 1.8 mi Variable 3.5 mph - N/A   Overcast
12:54 AM 43.0 °F 40.3 °F 42.1 °F 97% 29.88 in 1.5 mi SW 4.6 mph - N/A   Overcast
1:14 AM 42.8 °F 40.1 °F 42.8 °F 100% 29.86 in 2.0 mi Variable 4.6 mph - N/A   Overcast
1:54 AM 43.0 °F 41.3 °F 43.0 °F 100% 29.87 in 2.0 mi WSW 3.5 mph - N/A   Overcast
2:15 AM 42.8 °F - 42.8 °F 100% 29.86 in 1.5 mi Calm Calm - 0.00 in Rain Light Rain
2:35 AM 42.8 °F - 42.8 °F 100% 29.85 in 0.8 mi Calm Calm - 0.00 in   Mist
2:54 AM 43.0 °F - 42.1 °F 97% 29.86 in 0.8 mi Calm Calm - 0.00 in   Mist
3:54 AM 44.1 °F - 44.1 °F 100% 29.86 in 0.8 mi Calm Calm - N/A   Mist
4:18 AM 42.8 °F 41.1 °F 42.8 °F 100% 29.85 in 1.2 mi Variable 3.5 mph - N/A   Overcast
4:54 AM 43.0 °F - 43.0 °F 100% 29.88 in 1.0 mi Calm Calm - 0.01 in   Mist
5:17 AM 42.8 °F 41.1 °F 42.8 °F 100% 29.87 in 0.5 mi West 3.5 mph - N/A Fog Fog
5:54 AM 42.1 °F 39.2 °F 42.1 °F 100% 29.90 in 0.5 mi Variable 4.6 mph - N/A Fog Fog
6:01 AM 42.8 °F - 42.8 °F 100% 29.89 in 0.2 mi Calm Calm - N/A Fog Fog
6:37 AM 42.8 °F - 42.8 °F 100% 29.90 in 0.5 mi Calm Calm - N/A Fog Fog
6:54 AM 42.1 °F 39.2 °F 42.1 °F 100% 29.92 in 0.5 mi SW 4.6 mph - N/A Fog Fog
7:14 AM 42.8 °F 41.1 °F 42.8 °F 100% 29.92 in 0.2 mi Variable 3.5 mph - N/A Fog Fog
7:54 AM 41.0 °F - 41.0 °F 100% 29.95 in 0.2 mi Calm Calm - N/A Fog Fog
8:32 AM 42.8 °F 41.1 °F 42.8 °F 100% 29.95 in 1.0 mi Variable 3.5 mph - N/A   Mist
8:44 AM 42.8 °F - 42.8 °F 100% 29.96 in 2.5 mi Calm Calm - N/A   Overcast
8:51 AM 42.8 °F 41.1 °F 42.8 °F 100% 29.96 in 5.0 mi SW 3.5 mph - N/A   Overcast
8:54 AM 43.0 °F 41.3 °F 42.1 °F 97% 29.97 in 5.0 mi WSW 3.5 mph - N/A   Overcast
9:47 AM 44.6 °F - 42.8 °F 93% 29.97 in 10.0 mi Calm Calm - N/A   Scattered Clouds
9:54 AM 46.0 °F - 43.0 °F 89% 29.98 in 10.0 mi Calm Calm - N/A   Partly Cloudy
10:54 AM 55.0 °F - 39.0 °F 55% 29.98 in 10.0 mi Variable 4.6 mph - N/A   Clear
11:54 AM 57.9 °F - 37.9 °F 47% 29.96 in 10.0 mi Variable 4.6 mph - N/A   Clear
12:54 PM 61.0 °F - 34.0 °F 36% 29.95 in 10.0 mi Variable 4.6 mph - N/A   Clear
1:54 PM 62.1 °F - 33.1 °F 34% 29.93 in 10.0 mi Variable 5.8 mph - N/A   Clear
2:54 PM 64.0 °F - 33.1 °F 31% 29.92 in 10.0 mi Variable 5.8 mph - N/A   Clear
3:54 PM 63.0 °F - 30.0 °F 29% 29.92 in 10.0 mi Variable 3.5 mph - N/A   Clear
4:54 PM 64.0 °F - 30.0 °F 28% 29.92 in 10.0 mi Variable 3.5 mph - N/A   Clear
5:54 PM 61.0 °F - 30.9 °F 32% 29.94 in 10.0 mi Calm Calm - N/A   Clear
6:54 PM 53.1 °F - 35.1 °F 50% 29.97 in 10.0 mi Calm Calm - N/A   Clear
7:54 PM 48.9 °F - 32.0 °F 52% 29.99 in 10.0 mi Calm Calm - N/A   Clear
8:54 PM 51.1 °F - 27.0 °F 39% 30.01 in 10.0 mi North 6.9 mph - N/A   Clear
9:54 PM 48.9 °F - 26.1 °F 41% 30.02 in 10.0 mi North 6.9 mph - N/A   Clear
10:54 PM 48.0 °F - 25.0 °F 41% 30.03 in 10.0 mi North 6.9 mph - N/A   Clear
11:54 PM 46.0 °F 41.4 °F 25.0 °F 44% 30.01 in 10.0 mi NE 9.2 mph - N/A   Clear